STARLINK-35347, 65907

Orbit data source: Space-Track

STARLINK-35347, 65907 is a payload satellite owned by SpaceX/Seattle (US) in LEO that was launched on Tue, 07 Oct 2025 UTC via an FALCON 9 launch vehicle from the Air Force Eastern Test Range (AFETR). Payload-class satellites include a variety of spacecraft equipped with specific instruments for various scientific and technological missions. These include communications satellites like Starlink; space stations such as the ISS; scientific satellites like the Hubble; Earth observation satellites from companies like Planet Labs, Umbra, and HawkEye 360; GPS; miniature CubeSats for education and research; and military/defense satellites.

Loading next visibility...
Identifier
65907, 2025-224AB
Orbit
LEO
Country
Flag of USUS
Related business
Manufacturer
SpaceX/Seattle
Mission
Operational Commercial Communications
Bus & Motor
STARLINK V2MO, Unknown motor
Mass
575 kg wet, ~530 kg dry
Launch date (UTC)
2025-10-07 (5 months ago)
Launch vehicle
FALCON 9
Launch site
Air Force Eastern Test Range (AFETR)
Object type
Payload
Rocket body
Debris
Shape & HBR
Box + 2 Pan, 17.7 m
Radar Cross Section
36.964 m²

Expand to show TLE details & history
Last TLE update: 6 hours ago

TLE from 6 hours ago
0 STARLINK-35347
1 65907U 25224AB  26063.11819954  .00054751  00000-0  18450-2 0  9999
2 65907  53.1620  37.0492 0001373 123.8184 236.2947 15.30236654 24006
Epoch: 2026-03-04T02:50Z
TLE epoch observation values (Epoch: 2026-03-04T02:50:12.440Z)
Latitude
-0.00006°
Longitude
-167.39018°
Altitude
476.528 km
Speed
7.628 km/s
True Right ascension
02h 28m 11s
True Declination
0° 00' 00"
Sunlit
Object was in daylight at epoch
Visualization orbit readout
Latitude
Unknown
Longitude
Unknown
Altitude
Unknown
Speed
Unknown
Apparent Right ascension
Unknown
Apparent Declination
Unknown
Sunlit
N/A
Visualization observer readout
Local Sidereal Time
12:55:17
Azimuth
Unknown
Elevation
Unknown
Doppler factor
Unknown
Orbital elements
Apogee altitude
476.303 km
Perigee altitude
474.421 km
Semi-major axis
6,853.499 km
Eccentricity
0.00014
Inclination
53.162°
RAAN
37.0492°
Arg. of periapsis
123.8184°
True anomaly
236.28161°
Mean anomaly
236.2947°
Eccentric anomaly
236.28816°
Mean motion
3.82538 °/min
Orbital period
94.11 mins
BSTAR
0.001845
Loading maneuver chart data...
Computing Atmospheric mass density...
Loading historical data...
Loading historical data...
Loading historical data...
Loading historical data...
Loading historical data...
Loading historical data...
Loading historical data...

Documentation

Showing up to 5 results
|